Milan, NH

12:01 PM EST on February 27, 2017 (GMT -0500)
Berlin Municipal

Weather History for KBML - January, 2013

Change the Weather History Date:

Thursday, January 10, 2013

  Actual Average Record
Temperature  
Mean Temperature 31 °F -  
Max Temperature 36 °F 21 °F 46 °F (2016)
Min Temperature 21 °F 1 °F -24 °F (2004)
Degree Days  
Heating Degree Days 34    
Moisture  
Dew Point 24 °F    
Average Humidity 67    
Maximum Humidity 85    
Minimum Humidity 55    
Precipitation  
Precipitation 0.01 in - - ()
Sea Level Pressure  
Sea Level Pressure 30.23 in    
Wind  
Wind Speed 8 mph (WNW)    
Max Wind Speed 15 mph    
Max Gust Speed 33 mph    
Visibility 8 miles    
Events Snow    
Averages and records for this station are not official NWS values.
T = Trace of Precipitation, MM = Missing Value Source: NWS Daily Summary

Daily Weather History Graph

Daily Weather History Graph

Search for Another Location

Airport or City:

Trip Planner

Search our weather history database for the weather conditions in past years. The results will help you decide how hot, cold, wet, or windy it might be!

Date:

Astronomy

Jan. 10, 2013 Rise Set
Actual Time 7:20 AM EST 4:24 PM EST
Civil Twilight 6:47 AM EST 4:57 PM EST
Nautical Twilight 6:10 AM EST 5:34 PM EST
Astronomical Twilight 5:35 AM EST 6:09 PM EST
Moon 5:56 AM EST (1/10) 3:29 PM EST (1/10)
Length of Visible Light 10h 10m
Length of Day
9h 04m
Waning Crescent, 2% of the Moon is Illuminated
Jan 10
Waning Crescent
Jan 11
New
Jan 18
First Quarter
Jan 26
Full
Feb 3
Last Quarter

Hourly Weather History & Observations

Time (EST) Temp. Windchill Dew Point Humidity Pressure Visibility Wind Dir Wind Speed Gust Speed Precip Events Conditions
12:19 AM 35.6 °F 30.7 °F 28.4 °F 75% 29.88 in 7.0 mi Variable 5.8 mph - 0.00 in Snow Light Snow
12:34 AM 35.6 °F 30.7 °F 28.4 °F 75% 29.88 in 2.5 mi Variable 5.8 mph - 0.00 in Snow Light Snow
12:41 AM 35.6 °F 29.9 °F 28.4 °F 75% 29.88 in 6.0 mi Variable 6.9 mph - 0.00 in Snow Light Snow
12:52 AM 35.1 °F 30.1 °F 28.9 °F 78% 29.92 in 8.0 mi Variable 5.8 mph - 0.00 in Snow Light Snow
1:52 AM 36.0 °F 27.5 °F 27.0 °F 70% 29.96 in 4.0 mi WNW 12.7 mph 27.6 mph 0.00 in Snow Light Snow
2:10 AM 35.6 °F 27.5 °F 28.4 °F 75% 29.93 in 2.0 mi WNW 11.5 mph 33.4 mph 0.00 in Snow Light Snow
2:23 AM 35.6 °F 29.2 °F 28.4 °F 75% 29.94 in 1.5 mi WNW 8.1 mph 24.2 mph 0.00 in Snow Light Snow
2:32 AM 33.8 °F 24.3 °F 28.4 °F 81% 29.95 in 1.2 mi WNW 13.8 mph 25.3 mph 0.00 in Snow Light Snow
2:52 AM 34.0 °F 26.0 °F 30.0 °F 85% 30.01 in 1.5 mi WNW 10.4 mph 19.6 mph 0.00 in Snow Light Snow
3:18 AM 33.8 °F 27.7 °F 28.4 °F 81% 29.99 in 2.0 mi WNW 6.9 mph 23.0 mph 0.01 in Snow Light Snow
3:26 AM 35.6 °F 28.6 °F 28.4 °F 75% 29.99 in 5.0 mi WNW 9.2 mph 18.4 mph 0.01 in Snow Light Snow
3:52 AM 36.0 °F 27.5 °F 26.1 °F 67% 30.06 in 8.0 mi WNW 12.7 mph 32.2 mph 0.01 in   Overcast
4:52 AM 36.0 °F 28.5 °F 24.1 °F 62% 30.11 in 10.0 mi WNW 10.4 mph 21.9 mph 0.00 in   Overcast
5:52 AM 35.1 °F 25.5 °F 24.1 °F 64% 30.16 in 9.0 mi West 15.0 mph 26.5 mph 0.00 in   Overcast
6:52 AM 35.1 °F 27.9 °F 24.1 °F 64% 30.18 in 10.0 mi WNW 9.2 mph 23.0 mph 0.00 in   Overcast
7:52 AM 35.1 °F 27.4 °F 24.1 °F 64% 30.22 in 8.0 mi WNW 10.4 mph 26.5 mph 0.00 in   Overcast
8:52 AM 36.0 °F 27.5 °F 23.0 °F 59% 30.26 in 9.0 mi NW 12.7 mph 20.7 mph N/A   Overcast
9:52 AM 36.0 °F 30.3 °F 23.0 °F 59% 30.30 in 10.0 mi NW 6.9 mph 21.9 mph 0.00 in   Overcast
10:52 AM 36.0 °F 28.0 °F 23.0 °F 59% 30.31 in 10.0 mi NW 11.5 mph 23.0 mph N/A   Overcast
11:52 AM 36.0 °F 27.5 °F 21.9 °F 57% 30.32 in 10.0 mi NW 12.7 mph 23.0 mph N/A   Overcast
12:52 PM 36.0 °F 29.0 °F 21.9 °F 57% 30.34 in 10.0 mi WNW 9.2 mph 26.5 mph N/A   Overcast
2:52 PM 36.0 °F 31.1 °F 21.0 °F 55% 30.41 in 10.0 mi WNW 5.8 mph - N/A   Overcast
3:52 PM 35.1 °F 27.4 °F 21.0 °F 57% 30.44 in 10.0 mi NW 10.4 mph - N/A   Overcast
4:52 PM 34.0 °F 31.0 °F 21.0 °F 59% 30.47 in 10.0 mi SW 3.5 mph - N/A   Mostly Cloudy
5:52 PM 34.0 °F 25.5 °F 21.0 °F 59% 30.49 in 10.0 mi NW 11.5 mph 20.7 mph N/A   Mostly Cloudy
6:52 PM 33.1 °F 30.0 °F 21.9 °F 64% 30.49 in 10.0 mi Variable 3.5 mph - N/A   Overcast
7:04 PM 33.8 °F 28.6 °F 21.2 °F 60% 30.46 in 10.0 mi NNW 5.8 mph - N/A   Overcast
7:25 PM 32.0 °F 23.0 °F 19.4 °F 60% 30.45 in 10.0 mi NNW 11.5 mph 17.3 mph N/A   Scattered Clouds
7:52 PM 30.9 °F 21.2 °F 19.0 °F 61% 30.51 in 10.0 mi NW 12.7 mph 20.7 mph N/A   Clear
8:52 PM 28.9 °F - 18.0 °F 64% 30.51 in 10.0 mi Calm Calm - N/A   Clear
9:52 PM 28.0 °F 20.8 °F 18.0 °F 66% 30.53 in 10.0 mi NNW 6.9 mph - N/A   Clear
10:52 PM 26.1 °F - 17.1 °F 69% 30.54 in 10.0 mi Calm Calm - N/A   Clear
11:52 PM 21.0 °F - 15.1 °F 78% 30.54 in 10.0 mi Calm Calm - N/A   Clear